Point Salines, Grenada

11:19 PM AST on August 27, 2016 (GMT -0400)
Point Salines International

Weather History for TGPY - December, 2013

Change the Weather History Date:

Saturday, December 28, 2013

  Actual Average Record
Temperature  
Mean Temperature 79 °F -  
Max Temperature 84 °F 83 °F 87 °F (2012)
Min Temperature 74 °F 73 °F 70 °F (2015)
Cooling Degree Days 14    
Growing Degree Days 29 (Base 50)    
Moisture  
Dew Point 73 °F    
Average Humidity 80    
Maximum Humidity 94    
Minimum Humidity 62    
Precipitation  
Precipitation 0.04 in - - ()
Sea Level Pressure  
Sea Level Pressure 29.97 in    
Wind  
Wind Speed 10 mph ()    
Max Wind Speed 17 mph    
Max Gust Speed -    
Visibility 7.2 miles    
Events Rain    
Averages and records for this station are not official NWS values.
T = Trace of Precipitation, MM = Missing Value Source: Averaged Metar Reports

Daily Weather History Graph

Daily Weather History Graph

Search for Another Location

Airport or City:

Trip Planner

Search our weather history database for the weather conditions in past years. The results will help you decide how hot, cold, wet, or windy it might be!

Date:

Astronomy

Dec. 28, 2013 Rise Set
Actual Time 6:26 AM AST 5:51 PM AST
Civil Twilight 6:03 AM AST 6:14 PM AST
Nautical Twilight 5:36 AM AST 6:41 PM AST
Astronomical Twilight 5:10 AM AST 7:07 PM AST
Moon 2:21 AM AST 2:19 PM AST
Length of Visible Light 12h 11m
Length of Day
11h 25m
Waning Crescent, 19% of the Moon is Illuminated
Dec 28
Waning Crescent
Jan 1
New
Jan 7
First Quarter
Jan 16
Full
Jan 24
Last Quarter

Hourly Weather History & Observations

Time (AST) Temp. Heat Index Dew Point Humidity Pressure Visibility Wind Dir Wind Speed Gust Speed Precip Events Conditions
12:00 AM 75.2 °F - 71.6 °F 89% 30.01 in 6.2 mi East 5.8 mph - N/A   Scattered Clouds
1:00 AM 78.8 °F - 73.4 °F 83% 29.98 in 6.2 mi East 11.5 mph - N/A   Scattered Clouds
2:00 AM 78 °F - 73 °F 80% 29.96 in 11 mi East 11.5 mph - -   Widespread Dust
2:00 AM 78.8 °F - 73.4 °F 83% 29.95 in 6.2 mi East 11.5 mph - N/A   Partly Cloudy
3:00 AM 77.0 °F - 71.6 °F 83% 29.95 in 6.2 mi East 11.5 mph - N/A   Partly Cloudy
4:00 AM 77.0 °F - 71.6 °F 83% 29.95 in 6.2 mi East 10.4 mph - N/A   Partly Cloudy
5:00 AM 77 °F - 72 °F 82% 29.95 in 11 mi East 8.1 mph - -   Widespread Dust
5:00 AM 77.0 °F - 73.4 °F 89% 29.95 in 6.2 mi East 8.1 mph - N/A   Scattered Clouds
6:00 AM 75.2 °F - 73.4 °F 94% 29.95 in 6.2 mi East 5.8 mph - N/A   Partly Cloudy
7:00 AM 75.2 °F - 73.4 °F 94% 29.98 in 6.2 mi ENE 6.9 mph - N/A   Scattered Clouds
8:00 AM 78 °F - 74 °F 84% 30.01 in 10 mi East 8.1 mph - - Rain Light Rain Showers
8:00 AM 78.8 °F - 73.4 °F 83% 30.01 in 6.2 mi East 8.1 mph - N/A   Scattered Clouds
9:00 AM 82.4 °F 90.9 °F 77.0 °F 84% 30.01 in 6.2 mi East 17.3 mph - N/A   Mostly Cloudy
10:00 AM 82.4 °F 88.2 °F 73.4 °F 74% 30.04 in 6.2 mi East 17.3 mph - N/A   Mostly Cloudy
11:00 AM 83 °F - 75 °F 70% 30.02 in 9 mi East 17.3 mph - -   Widespread Dust
11:00 AM 82.4 °F 89.5 °F 75.2 °F 79% 30.01 in 6.2 mi East 17.3 mph - N/A   Mostly Cloudy
12:00 PM 84.2 °F 92.3 °F 75.2 °F 74% 29.98 in 6.2 mi ESE 17.3 mph - N/A   Mostly Cloudy
1:00 PM 84.2 °F 92.3 °F 75.2 °F 74% 29.98 in 6.2 mi East 13.8 mph - N/A Rain Light Rain Showers
2:00 PM 84 °F - 73 °F 62% 29.95 in 10 mi East 15.0 mph - -   Widespread Dust
2:00 PM 84.2 °F 90.9 °F 73.4 °F 70% 29.95 in 6.2 mi East 15.0 mph - N/A   Scattered Clouds
3:00 PM 84.2 °F 92.3 °F 75.2 °F 74% 29.92 in 6.2 mi ESE 17.3 mph - N/A   Scattered Clouds
4:00 PM 82.4 °F 88.2 °F 73.4 °F 74% 29.92 in 6.2 mi East 16.1 mph - N/A   Partly Cloudy
5:00 PM 82 °F - 73 °F 68% 29.93 in 11 mi East 16.1 mph - -   Widespread Dust
5:00 PM 82.4 °F 88.2 °F 73.4 °F 74% 29.92 in 6.2 mi East 17.3 mph - N/A   Partly Cloudy
6:00 PM 78.8 °F - 71.6 °F 78% 29.92 in 6.2 mi East 11.5 mph - N/A   Partly Cloudy
7:00 PM 78.8 °F - 73.4 °F 83% 29.95 in 6.2 mi East 11.5 mph - N/A   Partly Cloudy
8:00 PM 78 °F - 73 °F 80% 29.96 in - East 10.4 mph - -   Widespread Dust
8:00 PM 78.8 °F - 73.4 °F 83% 29.95 in 6.2 mi East 10.4 mph - N/A   Partly Cloudy
9:00 PM 77.0 °F - 73.4 °F 89% 29.98 in 6.2 mi ENE 9.2 mph - N/A   Partly Cloudy
10:00 PM 77.0 °F - 73.4 °F 89% 29.98 in 6.2 mi ENE 6.9 mph - N/A   Partly Cloudy
11:00 PM 77 °F - 72 °F 81% 29.98 in 11 mi East 9.2 mph - -   Widespread Dust
11:00 PM 77.0 °F - 71.6 °F 83% 29.98 in 6.2 mi East 9.2 mph - N/A   Partly Cloudy